Location: Makakahi
(40.6833°S, 175.6000°E)
Time: 00:32:28
(UTC+00:00)

FENGYUN 1C DEB - Pass Details

Date: 13 December 2024
Orbit: 812 x 877 km, 98.8° (Epoch: 19 January)

Event Time Altitude Azimuth Distance (km) Brightness Sun altitude
Rises 10:35:19 0° 184° (S) 3,389 ? -22.3°
Reaches altitude 10° 10:38:31 10° 204° (SSW) 2,457 ? -22.5°
Maximum altitude 10:41:46 16° 240° (WSW) 2,046 ? -22.8°
Drops below altitude 10° 10:45:00 10° 277° (W) 2,464 ? -23.0°
Sets 10:48:15 0° 297° (WNW) 3,403 ? -23.2°
